MST,Max TemperatureF,Mean TemperatureF,Min TemperatureF,Max Dew PointF,MeanDew PointF,Min DewpointF,Max Humidity, Mean Humidity, Min Humidity, Max Sea Level PressureIn, Mean Sea Level PressureIn, Min Sea Level PressureIn, Max VisibilityMiles, Mean VisibilityMiles, Min VisibilityMiles, Max Wind SpeedMPH, Mean Wind SpeedMPH, Max Gust SpeedMPH,PrecipitationIn, CloudCover, Events, WindDirDegrees
2013-1-1,31,14,-4,26,14,-8,95,79,63,30.25,30.20,30.15,,,,28,12,33,0.10,,,293
2013-1-2,29,11,-7,19,9,-10,91,77,63,30.48,30.35,30.21,,,,29,12,33,0.00,,,298
2013-1-3,34,13,-8,19,2,-12,88,69,49,30.41,30.28,30.19,,,,16,5,20,0.00,,,277
2013-1-4,39,19,-2,23,12,-6,91,72,52,30.19,30.15,30.09,,,,16,6,20,0.00,,,273
2013-1-5,36,19,2,23,15,0,92,76,59,30.31,30.26,30.13,,,,22,7,26,0.00,,,283
2013-1-6,40,19,-2,28,16,-6,87,72,56,30.18,29.97,29.87,,,,13,3,16,0.00,,,269
2013-1-7,39,27,15,30,21,11,89,70,50,29.98,29.85,29.62,,,,21,7,25,0.00,,,251
2013-1-8,40,26,12,33,25,10,96,83,69,30.09,29.88,29.59,,,,30,10,37,0.02,,,290
2013-1-9,46,33,19,30,25,17,85,65,45,30.05,29.88,29.66,,,,23,5,30,0.00,,,200
2013-1-10,41,27,12,29,22,8,92,78,64,29.81,29.68,29.59,,,,26,11,32,0.04,,,327
2013-1-11,12,8,3,7,3,-2,86,81,76,30.29,30.04,29.83,,,,24,18,30,0.05,,,332
2013-1-12,14,2,-11,4,-5,-13,86,77,67,30.35,30.32,30.29,,,,18,6,22,0.00,,,272
2013-1-13,13,1,-12,9,3,-14,92,81,70,30.35,30.31,30.25,,,,15,5,18,0.01,,,295
2013-1-14,23,9,-5,17,6,-6,95,79,62,30.33,30.18,30.00,,,,17,7,22,0.00,,,250
2013-1-15,39,31,23,29,26,18,92,76,59,30.00,29.97,29.93,,,,24,16,30,0.01,,,272
2013-1-16,41,37,33,30,27,24,82,69,55,30.31,30.13,29.96,,,,21,12,26,0.00,,,279
2013-1-17,45,32,18,29,25,16,92,71,49,30.36,30.18,29.93,,,,17,7,21,0.00,,,269
2013-1-18,46,37,28,27,24,22,78,62,45,29.96,29.90,29.79,,,,17,10,21,0.00,,,267
2013-1-19,33,27,20,25,19,16,91,80,68,30.40,30.26,29.99,,,,22,8,29,0.00,,,11
2013-1-20,21,11,0,17,2,-8,84,76,68,30.70,30.60,30.31,,,,21,7,25,0.02,,,359
2013-1-21,15,10,5,8,4,-2,88,79,69,30.53,30.36,30.20,,,,10,5,13,0.01,,,110
2013-1-22,31,17,3,19,10,0,91,75,58,30.29,30.21,30.15,,,,9,4,10,0.00,,,330
2013-1-23,16,12,8,10,6,3,83,77,70,30.47,30.33,30.09,,,,16,9,20,0.00,,,94
2013-1-24,43,30,16,29,20,11,85,69,53,30.17,30.02,29.94,,,,30,10,37,0.00,,,279
2013-1-25,53,33,13,30,22,10,92,65,38,30.14,30.05,29.91,,,,13,3,17,0.00,,,232
2013-1-26,52,41,29,36,30,27,92,71,50,29.90,29.82,29.69,,,,14,3,17,0.00,,,96
2013-1-27,41,35,28,34,29,25,100,80,59,29.86,29.82,29.75,,,,17,7,21,0.00,,,284
2013-1-28,39,28,16,25,20,15,92,68,44,29.88,29.83,29.75,,,,17,6,21,0.00,,,273
2013-1-29,23,8,-7,16,3,-12,88,80,71,30.39,30.09,29.74,,,,31,12,38,0.01,,,312
2013-1-30,11,2,-7,4,-3,-11,87,79,71,30.34,30.15,30.05,,,,22,8,29,0.04,,,21
2013-1-31,17,4,-9,11,-5,-17,80,73,65,30.50,30.34,30.09,,,,18,5,22,0.02,,,209